Weather History for Sheringham Point, BC

Change the Weather History Date:

Monday, November 26, 2012

  Actual Average Record
Temperature  
Mean Temperature 42 °F -  
Max Temperature 47 °F - - ()
Min Temperature 38 °F - - ()
Degree Days  
Heating Degree Days 22    
Moisture  
Dew Point 32 °F    
Average Humidity 64    
Maximum Humidity 82    
Minimum Humidity 47    
Precipitation  
Precipitation 0.00 in - - ()
Sea Level Pressure  
Sea Level Pressure 30.11 in    
Wind  
Wind Speed 8 mph ()    
Max Wind Speed 18 mph    
Max Gust Speed -    
T = Trace of Precipitation, MM = Missing Value Source: Averaged Metar Reports

Daily Weather History Graph

Daily Weather History Graph

Search for Another Location

Airport:

Trip Planner

Search our weather history database for the weather conditions in past years. The results will help you decide how hot, cold, wet, or windy it might be!

Date:

Astronomy

Nov. 26, 2012 Rise Set
Actual Time 7:40 AM PST 4:25 PM PST
Civil Twilight 7:04 AM PST 5:01 PM PST
Nautical Twilight 6:25 AM PST 5:40 PM PST
Astronomical Twilight 5:48 AM PST 6:17 PM PST
Moon 3:25 PM PST (11/26) 5:50 AM PST (11/26)
Length of Visible Light 9h 56m
Length of Day
8h 45m
Waxing Gibbous, 97% of the Moon is Illuminated
Nov 26
Waxing Gibbous
Nov 28
Full
Dec 6
Last Quarter
Dec 13
New
Dec 19
First Quarter

Hourly Weather History & Observations

Time (PST) Temp. Windchill Dew Point Humidity Pressure Visibility Wind Dir Wind Speed Gust Speed Precip Events Conditions
12:00 AM 41.9 °F 37.5 °F 33.1 °F 71% 30.25 in - NE 6.9 mph - N/A   Unknown
1:00 AM 41.4 °F 36.8 °F 31.6 °F 68% 30.22 in - NE 6.9 mph - N/A   Unknown
2:00 AM 40.6 °F 36.0 °F 31.8 °F 71% 30.20 in - ENE 6.9 mph - N/A   Unknown
3:00 AM 40.8 °F 36.2 °F 31.8 °F 70% 30.20 in - ENE 6.9 mph - N/A   Unknown
4:00 AM 41 °F - 32 °F 61% 30.19 in - ENE 5.8 mph - -  
4:00 AM 41.2 °F 37.3 °F 32.0 °F 70% 30.19 in - ENE 5.8 mph - N/A   Unknown
5:00 AM 40.6 °F 34.3 °F 34.2 °F 78% 30.17 in - East 10.4 mph - N/A   Unknown
6:00 AM 39.0 °F 33.4 °F 33.8 °F 82% 30.17 in - East 8.1 mph - N/A   Unknown
7:00 AM 38.3 °F 32.5 °F 33.1 °F 81% 30.14 in - East 8.1 mph - N/A   Unknown
8:00 AM 39.9 °F 36.7 °F 31.8 °F 73% 30.12 in - East 4.6 mph - N/A   Unknown
9:00 AM 41.9 °F 36.3 °F 31.3 °F 66% 30.12 in - East 9.2 mph - N/A   Unknown
10:00 AM 45 °F - 31 °F 47% 30.12 in - ESE 9.2 mph - -  
10:00 AM 44.8 °F 39.9 °F 31.5 °F 60% 30.12 in - ESE 9.2 mph - N/A   Unknown
11:00 AM 45.0 °F 37.4 °F 32.9 °F 63% 30.10 in - ESE 18.4 mph - N/A   Unknown
12:00 PM 46.6 °F - 31.5 °F 56% 30.08 in - ESE 18.4 mph - N/A   Unknown
1:00 PM 47.5 °F - 29.8 °F 50% 30.07 in - East 17.3 mph - N/A   Unknown
2:00 PM 47.5 °F - 30.2 °F 51% 30.06 in - East 18.4 mph - N/A   Unknown
3:00 PM 46.9 °F - 31.3 °F 55% 30.04 in - ESE 17.3 mph - N/A   Unknown
4:00 PM 46 °F - 34 °F 51% 30.05 in - ESE 17.3 mph - -  
4:00 PM 46.0 °F 39.0 °F 33.6 °F 62% 30.05 in - ESE 17.3 mph - N/A   Unknown
5:00 PM 42.8 °F 38.0 °F 32.0 °F 66% 30.06 in - East 8.1 mph - N/A   Unknown
6:00 PM 42.1 °F 37.1 °F 32.0 °F 67% 30.06 in - East 8.1 mph - N/A   Unknown
7:00 PM 41.0 °F 37.1 °F 29.7 °F 64% 30.05 in - East 5.8 mph - N/A   Unknown
8:00 PM 40.5 °F 35.8 °F 30.6 °F 68% 30.05 in - East 6.9 mph - N/A   Unknown
9:00 PM 40.8 °F 37.8 °F 29.5 °F 64% 30.07 in - East 4.6 mph - N/A   Unknown
10:00 PM 41 °F - 29 °F 51% 30.08 in - East 4.6 mph - -  
10:00 PM 41.4 °F 38.4 °F 29.1 °F 62% 30.08 in - East 4.6 mph - N/A   Unknown
11:00 PM 40.3 °F 36.3 °F 29.1 °F 64% 30.07 in - East 5.8 mph - N/A   Unknown